Time,TemperatureF,DewpointF,PressureIn,WindDirection,WindDirectionDegrees,WindSpeedMPH,WindSpeedGustMPH,Humidity,HourlyPrecipIn,Conditions,Clouds,dailyrainin,SolarRadiationWatts/m^2,SoftwareType,DateUTC
2013-03-09 00:01:00,21.0,10.0,-100.00,NW,319,14.0,21.0,61,0.00,,,0.00,0.000000,,2013-03-09 07:01:00,
2013-03-09 00:32:00,21.0,9.0,-100.00,NW,305,11.0,16.0,60,0.00,,,0.00,0.000000,,2013-03-09 07:32:00,
2013-03-09 00:42:00,21.0,9.0,-100.00,NW,305,11.0,16.0,60,0.00,,,0.00,0.000000,,2013-03-09 07:42:00,
2013-03-09 00:52:00,21.0,9.0,-100.00,NW,305,11.0,16.0,60,0.00,,,0.00,0.000000,,2013-03-09 07:52:00,
2013-03-09 01:01:00,21.0,9.0,-100.00,NW,305,11.0,16.0,60,0.00,,,0.00,0.000000,,2013-03-09 08:01:00,
2013-03-09 01:32:00,19.0,9.0,-100.00,WNW,292,16.0,19.0,65,0.00,,,0.00,0.000000,,2013-03-09 08:32:00,
2013-03-09 01:42:00,19.0,9.0,-100.00,WNW,292,16.0,19.0,65,0.00,,,0.00,0.000000,,2013-03-09 08:42:00,
2013-03-09 01:52:00,19.0,9.0,-100.00,WNW,292,16.0,19.0,65,0.00,,,0.00,0.000000,,2013-03-09 08:52:00,
2013-03-09 02:01:00,19.0,9.0,-100.00,WNW,292,16.0,19.0,65,0.00,,,0.00,0.000000,,2013-03-09 09:01:00,
2013-03-09 02:32:00,18.0,10.0,-100.00,West,280,16.0,21.0,69,0.00,,,0.00,0.000000,,2013-03-09 09:32:00,
2013-03-09 02:42:00,18.0,10.0,-100.00,West,280,16.0,21.0,69,0.00,,,0.00,0.000000,,2013-03-09 09:42:00,
2013-03-09 02:52:00,18.0,10.0,-100.00,West,280,16.0,21.0,69,0.00,,,0.00,0.000000,,2013-03-09 09:52:00,
2013-03-09 03:01:00,18.0,10.0,-100.00,West,280,16.0,21.0,69,0.00,,,0.00,0.000000,,2013-03-09 10:01:00,
2013-03-09 03:32:00,18.0,11.0,-100.00,West,271,14.0,23.0,75,0.00,,,0.00,0.000000,,2013-03-09 10:32:00,
2013-03-09 03:42:00,18.0,11.0,-100.00,West,271,14.0,23.0,75,0.00,,,0.00,0.000000,,2013-03-09 10:42:00,
2013-03-09 03:52:00,18.0,11.0,-100.00,West,271,14.0,23.0,75,0.00,,,0.00,0.000000,,2013-03-09 10:52:00,
2013-03-09 04:01:00,18.0,11.0,-100.00,West,271,14.0,23.0,75,0.00,,,0.00,0.000000,,2013-03-09 11:01:00,
2013-03-09 04:32:00,17.0,11.0,-100.00,West,276,16.0,22.0,77,0.00,,,0.00,0.000000,,2013-03-09 11:32:00,
2013-03-09 04:42:00,17.0,11.0,-100.00,West,276,16.0,22.0,77,0.00,,,0.00,0.000000,,2013-03-09 11:42:00,
2013-03-09 04:52:00,17.0,11.0,-100.00,West,276,16.0,22.0,77,0.00,,,0.00,0.000000,,2013-03-09 11:52:00,
2013-03-09 05:01:00,17.0,11.0,-100.00,West,276,16.0,22.0,77,0.00,,,0.00,0.000000,,2013-03-09 12:01:00,
2013-03-09 05:32:00,17.0,12.0,-100.00,West,272,14.0,24.0,79,0.00,,,0.00,0.000000,,2013-03-09 12:32:00,
2013-03-09 05:42:00,17.0,12.0,-100.00,West,272,14.0,24.0,79,0.00,,,0.00,0.000000,,2013-03-09 12:42:00,
2013-03-09 05:52:00,17.0,12.0,-100.00,West,272,14.0,24.0,79,0.00,,,0.00,0.000000,,2013-03-09 12:52:00,
2013-03-09 06:02:00,17.0,12.0,-100.00,West,272,14.0,24.0,79,0.00,,,0.00,0.000000,,2013-03-09 13:02:00,
2013-03-09 06:32:00,17.0,12.0,-100.00,West,271,12.0,21.0,80,0.00,,,0.00,0.000000,,2013-03-09 13:32:00,
2013-03-09 06:42:00,17.0,12.0,-100.00,West,271,12.0,21.0,80,0.00,,,0.00,0.000000,,2013-03-09 13:42:00,
2013-03-09 06:52:00,17.0,12.0,-100.00,West,271,12.0,21.0,80,0.00,,,0.00,0.000000,,2013-03-09 13:52:00,
2013-03-09 07:01:00,17.0,12.0,-100.00,West,271,12.0,21.0,80,0.00,,,0.00,0.000000,,2013-03-09 14:01:00,
2013-03-09 07:32:00,17.0,12.0,-100.00,West,279,14.0,19.0,79,0.00,,,0.00,1.000000,,2013-03-09 14:32:00,
2013-03-09 07:42:00,17.0,12.0,-100.00,West,279,14.0,19.0,79,0.00,,,0.00,1.000000,,2013-03-09 14:42:00,
2013-03-09 07:52:00,17.0,12.0,-100.00,West,279,14.0,19.0,79,0.00,,,0.00,1.000000,,2013-03-09 14:52:00,
2013-03-09 08:01:00,17.0,12.0,-100.00,West,279,14.0,19.0,79,0.00,,,0.00,1.000000,,2013-03-09 15:01:00,
2013-03-09 08:32:00,18.0,12.0,-100.00,WNW,285,15.0,22.0,77,0.00,,,0.00,40.000000,,2013-03-09 15:32:00,
2013-03-09 08:42:00,18.0,12.0,-100.00,WNW,285,15.0,22.0,77,0.00,,,0.00,40.000000,,2013-03-09 15:42:00,
2013-03-09 08:52:00,18.0,12.0,-100.00,WNW,285,15.0,22.0,77,0.00,,,0.00,40.000000,,2013-03-09 15:52:00,
2013-03-09 09:01:00,18.0,12.0,-100.00,WNW,285,15.0,22.0,77,0.00,,,0.00,40.000000,,2013-03-09 16:01:00,
2013-03-09 09:32:00,20.0,12.0,-100.00,WNW,294,14.0,19.0,72,0.00,,,0.00,179.000000,,2013-03-09 16:32:00,
2013-03-09 09:42:00,20.0,12.0,-100.00,WNW,294,14.0,19.0,72,0.00,,,0.00,179.000000,,2013-03-09 16:42:00,
2013-03-09 09:52:00,20.0,12.0,-100.00,WNW,294,14.0,19.0,72,0.00,,,0.00,179.000000,,2013-03-09 16:52:00,
2013-03-09 10:01:00,20.0,12.0,-100.00,WNW,294,14.0,19.0,72,0.00,,,0.00,179.000000,,2013-03-09 17:01:00,
2013-03-09 10:32:00,24.0,14.0,-100.00,NW,314,11.0,19.0,64,0.00,,,0.00,551.000000,,2013-03-09 17:32:00,
2013-03-09 10:42:00,24.0,14.0,-100.00,NW,314,11.0,19.0,64,0.00,,,0.00,551.000000,,2013-03-09 17:42:00,
2013-03-09 10:52:00,24.0,14.0,-100.00,NW,314,11.0,19.0,64,0.00,,,0.00,551.000000,,2013-03-09 17:52:00,
2013-03-09 11:01:00,24.0,14.0,-100.00,NW,314,11.0,19.0,64,0.00,,,0.00,551.000000,,2013-03-09 18:01:00,
2013-03-09 11:32:00,25.0,13.0,-100.00,West,278,8.0,17.0,60,0.00,,,0.00,569.000000,,2013-03-09 18:32:00,
2013-03-09 11:42:00,25.0,13.0,-100.00,West,278,8.0,17.0,60,0.00,,,0.00,569.000000,,2013-03-09 18:42:00,
2013-03-09 11:52:00,25.0,13.0,-100.00,West,278,8.0,17.0,60,0.00,,,0.00,569.000000,,2013-03-09 18:52:00,
2013-03-09 12:01:00,25.0,13.0,-100.00,West,278,8.0,17.0,60,0.00,,,0.00,569.000000,,2013-03-09 19:01:00,
2013-03-09 12:32:00,31.0,15.0,-100.00,West,281,9.0,16.0,52,0.00,,,0.00,818.000000,,2013-03-09 19:32:00,
2013-03-09 12:42:00,31.0,15.0,-100.00,West,281,9.0,16.0,52,0.00,,,0.00,818.000000,,2013-03-09 19:42:00,
2013-03-09 12:52:00,31.0,15.0,-100.00,West,281,9.0,16.0,52,0.00,,,0.00,818.000000,,2013-03-09 19:52:00,
2013-03-09 13:01:00,31.0,15.0,-100.00,West,281,9.0,16.0,52,0.00,,,0.00,818.000000,,2013-03-09 20:01:00,
2013-03-09 13:32:00,29.0,14.0,-100.00,WNW,301,12.0,19.0,53,0.00,,,0.00,851.000000,,2013-03-09 20:32:00,
2013-03-09 13:42:00,29.0,14.0,-100.00,WNW,301,12.0,19.0,53,0.00,,,0.00,851.000000,,2013-03-09 20:42:00,
2013-03-09 13:52:00,29.0,14.0,-100.00,WNW,301,12.0,19.0,53,0.00,,,0.00,851.000000,,2013-03-09 20:52:00,
2013-03-09 14:01:00,29.0,14.0,-100.00,WNW,301,12.0,19.0,53,0.00,,,0.00,851.000000,,2013-03-09 21:01:00,
2013-03-09 14:32:00,30.0,14.0,-100.00,WNW,288,15.0,20.0,51,0.00,,,0.00,817.000000,,2013-03-09 21:32:00,
2013-03-09 14:42:00,30.0,14.0,-100.00,WNW,288,15.0,20.0,51,0.00,,,0.00,817.000000,,2013-03-09 21:42:00,
2013-03-09 14:52:00,30.0,14.0,-100.00,WNW,288,15.0,20.0,51,0.00,,,0.00,817.000000,,2013-03-09 21:52:00,
2013-03-09 15:01:00,30.0,14.0,-100.00,WNW,288,15.0,20.0,51,0.00,,,0.00,817.000000,,2013-03-09 22:01:00,
2013-03-09 15:32:00,30.0,15.0,-100.00,West,278,16.0,23.0,52,0.00,,,0.00,710.000000,,2013-03-09 22:32:00,
2013-03-09 15:42:00,30.0,15.0,-100.00,West,278,16.0,23.0,52,0.00,,,0.00,710.000000,,2013-03-09 22:42:00,
2013-03-09 15:52:00,30.0,15.0,-100.00,West,278,16.0,23.0,52,0.00,,,0.00,710.000000,,2013-03-09 22:52:00,
2013-03-09 16:01:00,30.0,15.0,-100.00,West,278,16.0,23.0,52,0.00,,,0.00,710.000000,,2013-03-09 23:01:00,
2013-03-09 16:32:00,29.0,15.0,-100.00,West,279,18.0,25.0,56,0.00,,,0.00,569.000000,,2013-03-09 23:32:00,
2013-03-09 16:42:00,29.0,15.0,-100.00,West,279,18.0,25.0,56,0.00,,,0.00,569.000000,,2013-03-09 23:42:00,
2013-03-09 16:52:00,29.0,15.0,-100.00,West,279,18.0,25.0,56,0.00,,,0.00,569.000000,,2013-03-09 23:52:00,
2013-03-09 17:01:00,29.0,15.0,-100.00,West,279,18.0,25.0,56,0.00,,,0.00,569.000000,,2013-03-10 00:01:00,
2013-03-09 17:32:00,28.0,16.0,-100.00,WNW,283,17.0,27.0,60,0.00,,,0.00,378.000000,,2013-03-10 00:32:00,
2013-03-09 17:43:00,28.0,16.0,-100.00,WNW,283,17.0,27.0,60,0.00,,,0.00,378.000000,,2013-03-10 00:43:00,
2013-03-09 17:52:00,28.0,16.0,-100.00,WNW,283,17.0,27.0,60,0.00,,,0.00,378.000000,,2013-03-10 00:52:00,
2013-03-09 18:01:00,28.0,16.0,-100.00,WNW,283,17.0,27.0,60,0.00,,,0.00,378.000000,,2013-03-10 01:01:00,
2013-03-09 18:32:00,25.0,15.0,-100.00,West,265,13.0,22.0,65,0.00,,,-99.99,108.000000,,2013-03-10 01:32:00,
2013-03-09 18:42:00,25.0,15.0,-100.00,West,265,13.0,22.0,65,0.00,,,-99.99,108.000000,,2013-03-10 01:42:00,
2013-03-09 18:52:00,25.0,15.0,-100.00,West,265,13.0,22.0,65,0.00,,,-99.99,108.000000,,2013-03-10 01:52:00,
2013-03-09 19:01:00,25.0,15.0,-100.00,West,265,13.0,22.0,65,0.00,,,-99.99,108.000000,,2013-03-10 02:01:00,
2013-03-09 19:32:00,22.0,15.0,-100.00,West,268,14.0,22.0,75,0.00,,,-99.99,8.000000,,2013-03-10 02:32:00,
2013-03-09 19:42:00,22.0,15.0,-100.00,West,268,14.0,22.0,75,0.00,,,-99.99,8.000000,,2013-03-10 02:42:00,
2013-03-09 19:52:00,22.0,15.0,-100.00,West,268,14.0,22.0,75,0.00,,,-99.99,8.000000,,2013-03-10 02:52:00,
2013-03-09 20:01:00,22.0,15.0,-100.00,West,268,14.0,22.0,75,0.00,,,-99.99,8.000000,,2013-03-10 03:01:00,
2013-03-09 20:32:00,21.0,15.0,-100.00,West,269,13.0,20.0,76,0.00,,,0.00,0.000000,,2013-03-10 03:32:00,
2013-03-09 20:42:00,21.0,15.0,-100.00,West,269,13.0,20.0,76,0.00,,,0.00,0.000000,,2013-03-10 03:42:00,
2013-03-09 20:52:00,21.0,15.0,-100.00,West,269,13.0,20.0,76,0.00,,,0.00,0.000000,,2013-03-10 03:52:00,
2013-03-09 21:01:00,21.0,15.0,-100.00,West,269,13.0,20.0,76,0.00,,,0.00,0.000000,,2013-03-10 04:01:00,
2013-03-09 21:32:00,20.0,14.0,-100.00,West,266,13.0,26.0,77,0.00,,,0.00,0.000000,,2013-03-10 04:32:00,
2013-03-09 21:42:00,20.0,14.0,-100.00,West,266,13.0,26.0,77,0.00,,,0.00,0.000000,,2013-03-10 04:42:00,
2013-03-09 21:52:00,20.0,14.0,-100.00,West,266,13.0,26.0,77,0.00,,,0.00,0.000000,,2013-03-10 04:52:00,
2013-03-09 22:01:00,20.0,14.0,-100.00,West,266,13.0,26.0,77,0.00,,,0.00,0.000000,,2013-03-10 05:01:00,
2013-03-09 22:32:00,20.0,13.0,-100.00,SW,227,11.0,16.0,75,0.00,,,0.00,0.000000,,2013-03-10 05:32:00,
2013-03-09 22:42:00,20.0,13.0,-100.00,SW,227,11.0,16.0,75,0.00,,,0.00,0.000000,,2013-03-10 05:42:00,
2013-03-09 22:52:00,20.0,13.0,-100.00,SW,227,11.0,16.0,75,0.00,,,0.00,0.000000,,2013-03-10 05:52:00,
2013-03-09 23:01:00,20.0,13.0,-100.00,SW,227,11.0,16.0,75,0.00,,,0.00,0.000000,,2013-03-10 06:01:00,
2013-03-09 23:32:00,20.0,14.0,-100.00,SSW,213,9.0,15.0,78,0.00,,,0.00,0.000000,,2013-03-10 06:32:00,
2013-03-09 23:42:00,20.0,14.0,-100.00,SSW,213,9.0,15.0,78,0.00,,,0.00,0.000000,,2013-03-10 06:42:00,
2013-03-09 23:52:00,20.0,14.0,-100.00,SSW,213,9.0,15.0,78,0.00,,,0.00,0.000000,,2013-03-10 06:52:00,